Location: Bear Trap Landing
(45.2437°N, 67.7928°W)
Time: 23:24:27
(UTC+00:00)

ISS - Pass Details

Date: 09 March 2021
Orbit: 418 x 421 km, 51.6° (Epoch: 22 April)

Event Time Altitude Azimuth Distance (km) Brightness Sun altitude
Exits shadow 08:35:14 33° 52° (NE) 733 -2.0 -25.0°
Drops below altitude 10° 08:37:37 10° 88° (E) 1,497 0.0 -24.6°
Sets 08:39:44 0° 97° (E) 2,328 1.1 -24.2°
